Skip Page Navigation
NASA JPL Caltech
NASA Logo - Jet Propulsion Laboratory + View the NASA Portal
+ Near-Earth Object (NEO) Program
Search JPL
JPL Home Earth Solar System Stars & Galaxies Technology
JPL Solar System Dynamics
BODIES ORBITS EPHEMERIDES TOOLS PHYSICAL DATA DISCOVERY FAQ SITE MAP
JPL Small-Body Database Browser
Search: [ help ]  
(2008 WN2)
Classification: Apollo [NEO, PHA]          SPK-ID: 3439559
Ephemeris | Orbit Diagram | Orbital Elements | Physical Parameters | Close-Approach Data ]

[ hide orbit diagram ]
Orbit Diagram
Note: Make sure you have Java enabled on your browser to see the applet. This applet is provided as a 3D orbit visualization tool. The applet was implemented using 2-body methods, and hence should not be used for determining accurate long-term trajectories (over several years or decades) or planetary encounter circumstances. For accurate long-term ephemerides, please instead use our Horizons system.
Orbit Viewer

Additional Notes: the orbits shown in the applet are color coded. The planets are white lines, and the asteroid/comet is a blue line. The bright white line indicates the portion of the orbit that is above the ecliptic plane, and the darker portion is below the ecliptic plane. Likewise for the asteroid/comet orbit, the light blue indicates the portion above the ecliptic plane, and the dark blue the portion below the ecliptic plane.

Orbit Viewer applet originally written and kindly provided by Osamu Ajiki (AstroArts), and further modified by Ron Baalke (JPL).


Orbital Elements at Epoch 2456400.5 (2013-Apr-18.0) TDB
Reference: JPL 44 (heliocentric ecliptic J2000)
 Element Value Uncertainty (1-sigma)   Units 
e .3118057229047531 8.7457e-08  
a 1.417777521649163 1.7121e-07 AU
q .9757063765932369 2.7763e-08 AU
i 3.747054870457827 4.8385e-06 deg
node 227.1917793603672 3.3491e-05 deg
peri 283.2584654385757 3.812e-05 deg
M 164.3158311213191 0.00016178 deg
tp 2456119.058936194412
(2012-Jul-10.55893619)
0.00022618 JED
period 616.6099899114715
1.69
0.00011169
3.058e-07
d
yr
n .5838374432624522 1.0576e-07 deg/d
Q 1.85984866670509 2.246e-07 AU
  Orbit Determination Parameters
   # obs. used (total)      222  
   data-arc span      1037 days (2.84 yr)  
   first obs. used      2008-10-24  
   last obs. used      2011-08-27  
   planetary ephem.      DE405  
   SB-pert. ephem.      SB405-CPV-2  
   condition code      1  
   fit RMS      .62779  
   data source      ORB  
   producer      Otto Matic  
   solution date      2011-Sep-14 20:36:29  

Additional Information
 Earth MOID = .0486849 AU 
 T_jup = 4.660 
[ show covariance matrix ]

Ephemeris | Orbit Diagram | Orbital Elements | Physical Parameters | Close-Approach Data ]

Physical Parameter Table
Parameter Symbol Value Units Sigma Reference Notes
absolute magnitude H 20.737 mag .37506 44 autocmod 2.5a

[ show close-approach data ]
Ephemeris | Orbit Diagram | Orbital Elements | Physical Parameters | Close-Approach Data ]
ABOUT SSD CREDITS/AWARDS PRIVACY/COPYRIGHT GLOSSARY LINKS
FirstGov 2013-May-23 05:36 UT
(server date/time)  
NASA Home Page
Site Manager:   Donald K. Yeomans
Webmaster  Alan B. Chamberlin